Preview of NWS' New Version of Forecast
This preview is not operational and should not be used for support decisions.

Regional Weather Roundup (RWR)

Issued by National Weather Service (NWS)

                            
000
ASUS45 KCYS 200510
RWRWY 

WYOMING REGIONAL WEATHER ROUNDUP
NATIONAL WEATHER SERVICE CHEYENNE WY
1000 PM MST TUE FEB 19 2019

NOTE:  "FAIR" INDICATES FEW OR NO CLOUDS BELOW 12,000 FEET
WITH NO SIGNIFICANT WEATHER AND/OR OBSTRUCTIONS TO VISIBILITY.

WYZ001-200600-
...YELLOWSTONE NATIONAL PARK...
  
CITY           SKY/WX    TMP DP  RH WIND       PRES   REMARKS
LK YELLOWSTONE   N/A     -4  -9  79 CALM      29.63F                  
W YELLOWSTONE  NOT AVBL                                               

$$
WYZ002>013-054>058-071-098>099-200600-
...NORTHERN WYOMING...
  
CITY           SKY/WX    TMP DP  RH WIND       PRES   REMARKS
JACKSON        MOCLDY    -4  -8  83 NE5       29.72F WCI -15          
CODY           CLEAR     15  -4  42 W17G23    29.66F WCI  -1          
GREYBULL       CLEAR      4   1  88 E3        29.73F                  
WORLAND        CLEAR      6   3  87 CALM      29.71F                  
SHERIDAN       CLEAR      0  -6  76 SW5       29.72F WCI -10          
BUFFALO        CLEAR      7  -2  66 W5        29.64F WCI  -2          
GILLETTE       CLEAR      3  -1  83 W6        29.68F WCI  -8          
HULETT         FLURRIES  12   7  79 MISG      29.71F                  
NEWCASTLE        N/A     10   3  72 SE3       29.73F                  

$$
WYZ014>020-022>026-101>103-200600-
...CENTRAL WYOMING...
  
CITY           SKY/WX    TMP DP  RH WIND       PRES   REMARKS
BIG PINEY      PTCLDY   -10 -16  74 W6        29.68F WCI -23          
PINEDALE       MOCLDY   -11 -15  84 NW6       29.68F WCI -25          
DUBOIS         FAIR       1  -9  60 NW14      29.61S WCI -17          
LANDER         PTCLDY    12  -2  53 S5        29.64F WCI   4          
RIVERTON       CLEAR     12  -2  53 NW12      29.64F WCI  -2          
CASPER         CLEAR     11   4  73 SW12      29.64F WCI  -3          
DOUGLAS        CLEAR      9   4  80 SE3       29.67F                  

$$
WYZ021-027>030-104>119-200600-
...SOUTHERN WYOMING...
  
CITY           SKY/WX    TMP DP  RH WIND       PRES   REMARKS
EVANSTON       CLOUDY     5   0  79 SW16      29.72F HAZE    WCI -14  
KEMMERER       LGT SNOW   3   0  85 SW3       29.69F                  
FORT BRIDGER   MOCLDY     6   1  80 NE21      29.75F WCI -14          
ROCK SPRINGS   MOCLDY     4  -2  76 W22       29.70F WCI -18          
DIXON          LGT SNOW   5   1  81 CALM      29.77S                  
RAWLINS        MOCLDY     7   0  73 SW14      29.66F WCI -10          
SARATOGA       FAIR       5  -2  72 SW8       29.67F WCI  -8          
LARAMIE        CLEAR      7  -5  57 W16       29.59F WCI -11          
CHEYENNE       PTCLDY     5   1  83 W5        29.63F WCI  -4          
TORRINGTON     CLEAR      9   7  92 E10       29.72F WCI  -5          
PINE BLUFFS    MOCLDY     9   5  85 SW6       29.69F WCI  -1          

$$